,,PressureMeas_1m,,PRMeasQMR101_1,,RHStat155_1m_1,,SRMeasQMS101R_1m,,TAStat155_1m_1,,GenWind_1,,GenWind_1,
2019-09-02, 00:00:06,VALID,918.347,VALID,0.0,VALID,98.181,VALID,-0.017,VALID,19.422,INVALID,360.0,VALID,0.669,
2019-09-02, 00:01:06,VALID,918.365,VALID,0.0,VALID,98.164,VALID,-0.029,VALID,19.413,VALID,80.0,VALID,2.124,
2019-09-02, 00:02:06,VALID,918.34,VALID,0.0,VALID,97.998,VALID,-0.031,VALID,19.453,VALID,82.0,VALID,2.021,
2019-09-02, 00:03:06,VALID,918.326,VALID,0.0,VALID,97.802,VALID,-0.012,VALID,19.524,VALID,81.0,VALID,2.129,
2019-09-02, 00:04:06,VALID,918.332,VALID,0.0,VALID,97.504,VALID,-0.019,VALID,19.576,VALID,82.0,VALID,1.968,
2019-09-02, 00:05:06,VALID,918.32,VALID,0.0,VALID,97.271,VALID,-0.01,VALID,19.608,VALID,84.0,VALID,2.28,
2019-09-02, 00:06:06,VALID,918.287,VALID,0.0,VALID,97.11,VALID,-0.012,VALID,19.615,VALID,81.0,VALID,2.451,
2019-09-02, 00:07:06,VALID,918.305,VALID,0.0,VALID,97.022,VALID,-0.02,VALID,19.598,VALID,82.0,VALID,2.496,
2019-09-02, 00:08:06,VALID,918.264,VALID,0.0,VALID,96.987,VALID,0.0,VALID,19.609,VALID,83.0,VALID,2.487,
2019-09-02, 00:09:06,VALID,918.238,VALID,0.0,VALID,96.942,VALID,-0.016,VALID,19.643,VALID,79.0,VALID,2.389,
2019-09-02, 00:10:06,VALID,918.238,VALID,0.0,VALID,96.692,VALID,-0.012,VALID,19.653,VALID,77.0,VALID,2.713,
2019-09-02, 00:11:06,VALID,918.204,VALID,0.0,VALID,96.659,VALID,-0.019,VALID,19.659,VALID,81.0,VALID,3.052,
2019-09-02, 00:12:06,VALID,918.186,VALID,0.0,VALID,96.663,VALID,-0.016,VALID,19.655,VALID,80.0,VALID,2.364,
2019-09-02, 00:13:06,VALID,918.174,VALID,0.0,VALID,96.651,VALID,-0.022,VALID,19.652,VALID,78.0,VALID,2.6,
2019-09-02, 00:14:06,VALID,918.154,VALID,0.0,VALID,96.527,VALID,0.007,VALID,19.66,VALID,79.0,VALID,2.748,
2019-09-02, 00:15:06,VALID,918.132,VALID,0.0,VALID,96.527,VALID,-0.004,VALID,19.679,VALID,78.0,VALID,3.086,
2019-09-02, 00:16:06,VALID,918.105,VALID,0.0,VALID,96.399,VALID,0.003,VALID,19.703,VALID,83.0,VALID,2.449,
2019-09-02, 00:17:06,VALID,918.09,VALID,0.0,VALID,96.301,VALID,-0.015,VALID,19.705,VALID,80.0,VALID,2.904,
2019-09-02, 00:18:06,VALID,918.072,VALID,0.0,VALID,96.343,VALID,-0.019,VALID,19.713,VALID,81.0,VALID,3.139,
2019-09-02, 00:19:06,VALID,918.073,VALID,0.0,VALID,96.21,VALID,-0.005,VALID,19.738,VALID,84.0,VALID,2.899,
2019-09-02, 00:20:06,VALID,918.065,VALID,0.0,VALID,96.043,VALID,-0.02,VALID,19.78,VALID,86.0,VALID,3.251,
2019-09-02, 00:21:06,VALID,918.076,VALID,0.0,VALID,95.89,VALID,-0.032,VALID,19.801,VALID,82.0,VALID,2.611,
2019-09-02, 00:22:06,VALID,918.084,VALID,0.0,VALID,95.811,VALID,-0.01,VALID,19.798,VALID,76.0,VALID,2.645,
2019-09-02, 00:23:06,VALID,918.052,VALID,0.0,VALID,95.88,VALID,-0.004,VALID,19.751,VALID,82.0,VALID,2.6,
2019-09-02, 00:24:06,VALID,918.026,VALID,0.0,VALID,96.207,VALID,-0.014,VALID,19.713,VALID,85.0,VALID,2.446,
2019-09-02, 00:25:06,VALID,918.046,VALID,0.0,VALID,96.351,VALID,-0.015,VALID,19.693,VALID,78.0,VALID,2.596,
2019-09-02, 00:26:06,VALID,918.012,VALID,0.0,VALID,96.206,VALID,-0.016,VALID,19.656,VALID,70.0,VALID,2.299,
2019-09-02, 00:27:06,VALID,917.994,VALID,0.0,VALID,96.326,VALID,-0.015,VALID,19.611,VALID,72.0,VALID,2.365,
2019-09-02, 00:28:06,VALID,917.973,VALID,0.0,VALID,96.502,VALID,-0.007,VALID,19.568,VALID,63.0,VALID,2.237,
2019-09-02, 00:29:06,VALID,917.934,VALID,0.0,VALID,96.673,VALID,-0.02,VALID,19.557,VALID,64.0,VALID,1.798,
2019-09-02, 00:30:06,VALID,917.904,VALID,0.0,VALID,96.699,VALID,-0.015,VALID,19.548,VALID,58.0,VALID,2.336,
2019-09-02, 00:31:06,VALID,917.912,VALID,0.0,VALID,96.786,VALID,-0.036,VALID,19.533,VALID,60.0,VALID,2.698,
2019-09-02, 00:32:06,VALID,917.865,VALID,0.0,VALID,96.904,VALID,-0.009,VALID,19.502,VALID,66.0,VALID,2.488,
2019-09-02, 00:33:06,VALID,917.851,VALID,0.0,VALID,96.965,VALID,-0.033,VALID,19.473,VALID,69.0,VALID,2.552,
2019-09-02, 00:34:06,VALID,917.831,VALID,0.0,VALID,97.053,VALID,-0.031,VALID,19.448,VALID,67.0,VALID,2.834,
2019-09-02, 00:35:06,VALID,917.811,VALID,0.0,VALID,97.15,VALID,-0.064,VALID,19.449,VALID,63.0,VALID,3.0,
2019-09-02, 00:36:06,VALID,917.755,VALID,0.0,VALID,97.288,VALID,-0.064,VALID,19.492,VALID,74.0,VALID,3.439,
2019-09-02, 00:37:06,VALID,917.736,VALID,0.0,VALID,96.999,VALID,-0.061,VALID,19.545,VALID,72.0,VALID,3.081,
2019-09-02, 00:38:06,VALID,917.72,VALID,0.0,VALID,96.731,VALID,-0.066,VALID,19.558,VALID,67.0,VALID,2.632,
2019-09-02, 00:39:06,VALID,917.709,VALID,0.0,VALID,96.68,VALID,-0.043,VALID,19.555,VALID,67.0,VALID,3.002,
2019-09-02, 00:40:06,VALID,917.702,VALID,0.0,VALID,96.708,VALID,-0.042,VALID,19.554,VALID,70.0,VALID,2.964,
2019-09-02, 00:41:06,VALID,917.694,VALID,0.0,VALID,96.716,VALID,-0.068,VALID,19.57,VALID,68.0,VALID,2.556,
2019-09-02, 00:42:06,VALID,917.669,VALID,0.0,VALID,96.622,VALID,-0.078,VALID,19.581,VALID,66.0,VALID,2.254,
2019-09-02, 00:43:06,VALID,917.655,VALID,0.0,VALID,96.54,VALID,-0.062,VALID,19.565,VALID,68.0,VALID,2.564,
2019-09-02, 00:44:06,VALID,917.668,VALID,0.0,VALID,96.497,VALID,-0.085,VALID,19.56,VALID,67.0,VALID,2.391,
2019-09-02, 00:45:06,VALID,917.636,VALID,0.0,VALID,96.423,VALID,-0.069,VALID,19.567,VALID,71.0,VALID,2.838,
2019-09-02, 00:46:06,VALID,917.625,VALID,0.0,VALID,96.456,VALID,-0.068,VALID,19.589,VALID,76.0,VALID,2.858,
2019-09-02, 00:47:06,VALID,917.636,VALID,0.0,VALID,96.341,VALID,-0.067,VALID,19.629,VALID,68.0,VALID,2.537,
2019-09-02, 00:48:06,VALID,917.594,VALID,0.0,VALID,96.237,VALID,-0.059,VALID,19.657,VALID,73.0,VALID,3.214,
2019-09-02, 00:49:06,VALID,917.594,VALID,0.0,VALID,96.038,VALID,-0.052,VALID,19.709,VALID,73.0,VALID,2.248,
2019-09-02, 00:50:06,VALID,917.582,VALID,0.0,VALID,95.679,VALID,-0.029,VALID,19.761,VALID,75.0,VALID,2.068,
2019-09-02, 00:51:06,VALID,917.56,VALID,0.0,VALID,95.536,VALID,-0.028,VALID,19.776,VALID,73.0,VALID,3.301,
2019-09-02, 00:52:06,VALID,917.535,VALID,0.0,VALID,95.597,VALID,-0.034,VALID,19.745,VALID,77.0,VALID,3.574,
2019-09-02, 00:53:06,VALID,917.524,VALID,0.0,VALID,95.595,VALID,-0.03,VALID,19.768,VALID,74.0,VALID,3.154,
2019-09-02, 00:54:06,VALID,917.494,VALID,0.0,VALID,95.339,VALID,-0.033,VALID,19.802,VALID,67.0,VALID,2.239,
2019-09-02, 00:55:06,VALID,917.499,VALID,0.0,VALID,95.24,VALID,-0.018,VALID,19.813,VALID,68.0,VALID,2.606,
2019-09-02, 00:56:06,VALID,917.47,VALID,0.0,VALID,95.131,VALID,-0.023,VALID,19.804,VALID,64.0,VALID,2.007,
2019-09-02, 00:57:06,VALID,917.456,VALID,0.0,VALID,95.348,VALID,-0.033,VALID,19.744,VALID,63.0,VALID,2.245,
2019-09-02, 00:58:06,VALID,917.429,VALID,0.0,VALID,95.668,VALID,-0.032,VALID,19.694,VALID,65.0,VALID,2.3,
2019-09-02, 00:59:06,VALID,917.415,VALID,0.0,VALID,95.867,VALID,-0.033,VALID,19.694,VALID,78.0,VALID,2.388,
2019-09-02, 01:00:06,VALID,917.423,VALID,0.0,VALID,95.507,VALID,-0.028,VALID,19.768,VALID,71.0,VALID,2.578,
2019-09-02, 01:01:06,VALID,917.414,VALID,0.0,VALID,94.969,VALID,-0.031,VALID,19.887,VALID,75.0,VALID,3.267,
2019-09-02, 01:02:06,VALID,917.429,VALID,0.0,VALID,94.638,VALID,-0.026,VALID,19.935,VALID,85.0,VALID,1.997,
2019-09-02, 01:03:06,VALID,917.435,VALID,0.0,VALID,94.619,VALID,-0.039,VALID,19.929,VALID,84.0,VALID,2.485,
2019-09-02, 01:04:06,VALID,917.428,VALID,0.0,VALID,94.462,VALID,-0.036,VALID,19.958,VALID,84.0,VALID,2.722,
2019-09-02, 01:05:06,VALID,917.406,VALID,0.0,VALID,94.205,VALID,-0.05,VALID,19.999,VALID,89.0,VALID,2.254,
2019-09-02, 01:06:06,VALID,917.388,VALID,0.0,VALID,94.07,VALID,-0.045,VALID,20.035,VALID,84.0,VALID,1.61,
2019-09-02, 01:07:06,VALID,917.353,VALID,0.0,VALID,93.685,VALID,-0.043,VALID,20.099,VALID,83.0,VALID,2.071,
2019-09-02, 01:08:06,VALID,917.325,VALID,0.0,VALID,93.18,VALID,-0.041,VALID,20.172,VALID,81.0,VALID,1.739,
2019-09-02, 01:09:06,VALID,917.303,VALID,0.0,VALID,92.849,VALID,-0.06,VALID,20.227,VALID,80.0,VALID,1.523,
2019-09-02, 01:10:06,VALID,917.303,VALID,0.0,VALID,92.417,VALID,-0.054,VALID,20.285,VALID,82.0,VALID,2.485,
2019-09-02, 01:11:06,VALID,917.292,VALID,0.0,VALID,92.177,VALID,-0.033,VALID,20.302,VALID,82.0,VALID,2.548,
2019-09-02, 01:12:06,VALID,917.275,VALID,0.0,VALID,92.322,VALID,-0.026,VALID,20.29,VALID,86.0,VALID,2.72,
2019-09-02, 01:13:06,VALID,917.243,VALID,0.0,VALID,92.159,VALID,-0.03,VALID,20.308,VALID,83.0,VALID,2.805,
2019-09-02, 01:14:06,VALID,917.232,VALID,0.0,VALID,91.489,VALID,-0.053,VALID,20.415,VALID,84.0,VALID,2.822,
2019-09-02, 01:15:06,VALID,917.214,VALID,0.0,VALID,90.282,VALID,-0.052,VALID,20.642,VALID,87.0,VALID,1.609,
2019-09-02, 01:16:06,VALID,917.191,VALID,0.0,VALID,89.695,VALID,-0.065,VALID,20.74,VALID,85.0,VALID,1.829,
2019-09-02, 01:17:06,VALID,917.182,VALID,0.0,VALID,88.512,VALID,-0.04,VALID,20.887,VALID,85.0,VALID,1.174,
2019-09-02, 01:18:06,VALID,917.186,VALID,0.0,VALID,88.104,VALID,-0.051,VALID,20.996,VALID,83.0,VALID,1.661,
2019-09-02, 01:19:06,VALID,917.177,VALID,0.0,VALID,88.194,VALID,-0.04,VALID,20.963,VALID,80.0,VALID,2.318,
2019-09-02, 01:20:06,VALID,917.161,VALID,0.0,VALID,88.494,VALID,0.003,VALID,20.898,VALID,82.0,VALID,2.059,
2019-09-02, 01:21:06,VALID,917.119,VALID,0.0,VALID,88.987,VALID,0.004,VALID,20.779,VALID,69.0,VALID,1.464,
2019-09-02, 01:22:06,VALID,917.1,VALID,0.0,VALID,89.441,VALID,-0.001,VALID,20.667,VALID,64.0,VALID,1.475,
2019-09-02, 01:23:06,VALID,917.076,VALID,0.0,VALID,89.854,VALID,-0.004,VALID,20.61,VALID,78.0,VALID,2.255,
2019-09-02, 01:24:06,VALID,917.035,VALID,0.0,VALID,89.234,VALID,-0.007,VALID,20.724,VALID,73.0,VALID,2.244,
2019-09-02, 01:25:06,VALID,917.022,VALID,0.0,VALID,88.379,VALID,-0.011,VALID,20.925,VALID,77.0,VALID,2.907,
2019-09-02, 01:26:06,VALID,916.98,VALID,0.0,VALID,87.509,VALID,-0.013,VALID,21.062,VALID,80.0,VALID,2.586,
2019-09-02, 01:27:06,VALID,916.993,VALID,0.0,VALID,87.35,VALID,0.0,VALID,21.107,VALID,70.0,VALID,2.688,
2019-09-02, 01:28:06,VALID,916.972,VALID,0.0,VALID,88.189,VALID,-0.002,VALID,20.941,VALID,75.0,VALID,2.156,
2019-09-02, 01:29:06,VALID,916.969,VALID,0.0,VALID,89.083,VALID,-0.015,VALID,20.764,VALID,78.0,VALID,1.956,
2019-09-02, 01:30:06,VALID,916.972,VALID,0.0,VALID,89.366,VALID,-0.012,VALID,20.687,VALID,68.0,VALID,1.368,
2019-09-02, 01:31:06,VALID,916.995,VALID,0.0,VALID,89.594,VALID,-0.01,VALID,20.663,VALID,68.0,VALID,1.984,
2019-09-02, 01:32:06,VALID,916.996,VALID,0.0,VALID,89.631,VALID,-0.004,VALID,20.631,VALID,88.0,VALID,2.356,
2019-09-02, 01:33:06,VALID,916.99,VALID,0.0,VALID,89.498,VALID,-0.018,VALID,20.67,VALID,85.0,VALID,1.3,
2019-09-02, 01:34:06,VALID,916.985,VALID,0.0,VALID,89.687,VALID,-0.015,VALID,20.624,VALID,76.0,VALID,1.33,
2019-09-02, 01:35:06,VALID,917.015,VALID,0.0,VALID,89.989,VALID,-0.037,VALID,20.556,VALID,81.0,VALID,1.431,
2019-09-02, 01:36:06,VALID,917.016,VALID,0.0,VALID,90.211,VALID,-0.04,VALID,20.518,VALID,76.0,VALID,1.569,
2019-09-02, 01:37:06,VALID,917.007,VALID,0.0,VALID,90.5,VALID,-0.046,VALID,20.49,VALID,95.0,VALID,1.163,
2019-09-02, 01:38:06,VALID,917.006,VALID,0.0,VALID,90.846,VALID,-0.053,VALID,20.454,VALID,79.0,VALID,0.555,
2019-09-02, 01:39:06,VALID,917.046,VALID,0.0,VALID,91.117,VALID,-0.05,VALID,20.417,VALID,73.0,VALID,0.398,
2019-09-02, 01:40:06,VALID,917.071,VALID,0.0,VALID,91.118,VALID,-0.039,VALID,20.391,VALID,91.0,VALID,1.025,
2019-09-02, 01:41:06,VALID,917.078,VALID,0.0,VALID,90.508,VALID,-0.026,VALID,20.484,VALID,74.0,VALID,0.503,
2019-09-02, 01:42:06,VALID,917.07,VALID,0.0,VALID,89.702,VALID,-0.053,VALID,20.629,INVALID,360.0,VALID,0.0,
2019-09-02, 01:43:06,VALID,917.079,VALID,0.0,VALID,89.284,VALID,-0.033,VALID,20.694,INVALID,360.0,VALID,0.0,
2019-09-02, 01:44:06,VALID,917.093,VALID,0.0,VALID,89.485,VALID,-0.03,VALID,20.59,INVALID,360.0,VALID,0.0,
2019-09-02, 01:45:06,VALID,917.098,VALID,0.0,VALID,90.391,VALID,-0.042,VALID,20.426,INVALID,360.0,VALID,0.0,
2019-09-02, 01:46:06,VALID,917.079,VALID,0.0,VALID,90.974,VALID,-0.035,VALID,20.358,INVALID,360.0,VALID,0.0,
2019-09-02, 01:47:06,VALID,917.082,VALID,0.0,VALID,90.303,VALID,-0.04,VALID,20.48,INVALID,360.0,VALID,0.0,
2019-09-02, 01:48:06,VALID,917.08,VALID,0.0,VALID,89.956,VALID,-0.036,VALID,20.505,INVALID,360.0,VALID,0.0,
2019-09-02, 01:49:06,VALID,917.046,VALID,0.0,VALID,90.37,VALID,-0.028,VALID,20.489,INVALID,360.0,VALID,0.0,
2019-09-02, 01:50:06,VALID,917.051,VALID,0.0,VALID,90.345,VALID,-0.041,VALID,20.499,INVALID,360.0,VALID,0.0,
2019-09-02, 01:51:06,VALID,917.041,VALID,0.0,VALID,90.325,VALID,-0.042,VALID,20.472,INVALID,360.0,VALID,0.0,
2019-09-02, 01:52:06,VALID,917.012,VALID,0.0,VALID,90.676,VALID,-0.032,VALID,20.387,INVALID,360.0,VALID,0.614,
2019-09-02, 01:53:06,VALID,917.016,VALID,0.0,VALID,90.423,VALID,-0.045,VALID,20.457,VALID,84.0,VALID,1.909,
2019-09-02, 01:54:06,VALID,916.99,VALID,0.0,VALID,89.748,VALID,-0.028,VALID,20.607,VALID,88.0,VALID,1.234,
2019-09-02, 01:55:06,VALID,917.009,VALID,0.0,VALID,89.741,VALID,-0.037,VALID,20.606,VALID,79.0,VALID,1.18,
2019-09-02, 01:56:06,VALID,917.001,VALID,0.0,VALID,89.713,VALID,-0.038,VALID,20.589,VALID,82.0,VALID,1.179,
2019-09-02, 01:57:06,VALID,917.031,VALID,0.0,VALID,89.278,VALID,-0.028,VALID,20.637,VALID,69.0,VALID,0.929,
2019-09-02, 01:58:06,VALID,917.037,VALID,0.0,VALID,89.491,VALID,-0.033,VALID,20.579,VALID,53.0,VALID,0.787,
2019-09-02, 01:59:06,VALID,917.035,VALID,0.0,VALID,90.453,VALID,-0.038,VALID,20.405,VALID,55.0,VALID,0.762,
2019-09-02, 02:00:06,VALID,917.023,VALID,0.0,VALID,90.98,VALID,-0.032,VALID,20.288,VALID,56.0,VALID,0.602,
2019-09-02, 02:01:06,VALID,917.015,VALID,0.0,VALID,91.514,VALID,-0.038,VALID,20.224,VALID,56.0,VALID,0.746,
2019-09-02, 02:02:06,VALID,917.015,VALID,0.0,VALID,91.517,VALID,-0.023,VALID,20.226,VALID,65.0,VALID,0.922,
2019-09-02, 02:03:06,VALID,917.005,VALID,0.0,VALID,91.398,VALID,-0.038,VALID,20.261,VALID,63.0,VALID,1.295,
2019-09-02, 02:04:06,VALID,916.984,VALID,0.0,VALID,91.185,VALID,-0.031,VALID,20.361,VALID,67.0,VALID,1.294,
2019-09-02, 02:05:06,VALID,916.971,VALID,0.0,VALID,90.606,VALID,-0.021,VALID,20.429,VALID,63.0,VALID,1.012,
2019-09-02, 02:06:06,VALID,916.945,VALID,0.0,VALID,90.71,VALID,-0.034,VALID,20.391,VALID,63.0,VALID,1.133,
2019-09-02, 02:07:06,VALID,916.924,VALID,0.0,VALID,90.828,VALID,-0.043,VALID,20.373,VALID,58.0,VALID,1.261,
2019-09-02, 02:08:06,VALID,916.925,VALID,0.0,VALID,90.906,VALID,-0.031,VALID,20.348,VALID,65.0,VALID,1.337,
2019-09-02, 02:09:06,VALID,916.901,VALID,0.0,VALID,90.731,VALID,-0.033,VALID,20.391,VALID,58.0,VALID,1.304,
2019-09-02, 02:10:06,VALID,916.884,VALID,0.0,VALID,90.677,VALID,-0.031,VALID,20.395,VALID,50.0,VALID,0.986,
2019-09-02, 02:11:06,VALID,916.889,VALID,0.0,VALID,91.168,VALID,-0.017,VALID,20.29,VALID,45.0,VALID,0.881,
2019-09-02, 02:12:06,VALID,916.892,VALID,0.0,VALID,91.635,VALID,-0.033,VALID,20.226,VALID,51.0,VALID,0.813,
2019-09-02, 02:13:06,VALID,916.86,VALID,0.0,VALID,91.604,VALID,-0.036,VALID,20.229,INVALID,360.0,VALID,0.157,
2019-09-02, 02:14:06,VALID,916.877,VALID,0.0,VALID,91.618,VALID,-0.037,VALID,20.179,INVALID,360.0,VALID,0.0,
2019-09-02, 02:15:06,VALID,916.836,VALID,0.0,VALID,91.948,VALID,-0.024,VALID,20.064,INVALID,360.0,VALID,0.0,
2019-09-02, 02:16:06,VALID,916.833,VALID,0.0,VALID,92.437,VALID,-0.043,VALID,20.07,INVALID,360.0,VALID,0.0,
2019-09-02, 02:17:06,VALID,916.82,VALID,0.0,VALID,91.701,VALID,-0.045,VALID,20.172,INVALID,360.0,VALID,0.0,
2019-09-02, 02:18:06,VALID,916.826,VALID,0.0,VALID,91.17,VALID,-0.052,VALID,20.25,INVALID,360.0,VALID,0.0,
2019-09-02, 02:19:06,VALID,916.802,VALID,0.0,VALID,91.092,VALID,-0.027,VALID,20.299,INVALID,360.0,VALID,0.0,
2019-09-02, 02:20:06,VALID,916.801,VALID,0.0,VALID,91.102,VALID,-0.029,VALID,20.305,INVALID,360.0,VALID,0.0,
2019-09-02, 02:21:06,VALID,916.806,VALID,0.0,VALID,90.965,VALID,-0.028,VALID,20.304,INVALID,360.0,VALID,0.0,
2019-09-02, 02:22:06,VALID,916.791,VALID,0.0,VALID,91.265,VALID,-0.022,VALID,20.251,INVALID,360.0,VALID,0.0,
2019-09-02, 02:23:06,VALID,916.799,VALID,0.0,VALID,91.636,VALID,-0.018,VALID,20.176,INVALID,360.0,VALID,0.0,
2019-09-02, 02:24:06,VALID,916.794,VALID,0.0,VALID,91.738,VALID,-0.016,VALID,20.206,INVALID,360.0,VALID,0.0,
2019-09-02, 02:25:06,VALID,916.808,VALID,0.0,VALID,91.245,VALID,-0.028,VALID,20.277,INVALID,360.0,VALID,0.0,
2019-09-02, 02:26:06,VALID,916.814,VALID,0.0,VALID,90.64,VALID,-0.021,VALID,20.294,INVALID,360.0,VALID,0.0,
2019-09-02, 02:27:06,VALID,916.788,VALID,0.0,VALID,90.665,VALID,-0.011,VALID,20.233,INVALID,360.0,VALID,0.0,
2019-09-02, 02:28:06,VALID,916.768,VALID,0.0,VALID,91.166,VALID,-0.028,VALID,20.212,INVALID,360.0,VALID,0.0,
2019-09-02, 02:29:06,VALID,916.772,VALID,0.0,VALID,90.708,VALID,-0.034,VALID,20.178,INVALID,360.0,VALID,0.0,
2019-09-02, 02:30:06,VALID,916.743,VALID,0.0,VALID,91.071,VALID,-0.033,VALID,20.076,INVALID,360.0,VALID,0.0,
2019-09-02, 02:31:06,VALID,916.746,VALID,0.0,VALID,91.53,VALID,-0.024,VALID,20.116,INVALID,360.0,VALID,0.654,
2019-09-02, 02:32:06,VALID,916.72,VALID,0.0,VALID,91.108,VALID,-0.023,VALID,20.272,INVALID,360.0,VALID,0.24,
2019-09-02, 02:33:06,VALID,916.732,VALID,0.0,VALID,90.095,VALID,-0.025,VALID,20.456,INVALID,360.0,VALID,0.0,
2019-09-02, 02:34:06,VALID,916.723,VALID,0.0,VALID,89.527,VALID,-0.016,VALID,20.544,INVALID,360.0,VALID,0.0,
2019-09-02, 02:35:06,VALID,916.696,VALID,0.0,VALID,89.404,VALID,-0.024,VALID,20.557,INVALID,360.0,VALID,0.0,
2019-09-02, 02:36:06,VALID,916.693,VALID,0.0,VALID,89.166,VALID,-0.034,VALID,20.561,INVALID,360.0,VALID,0.0,
2019-09-02, 02:37:06,VALID,916.678,VALID,0.0,VALID,88.996,VALID,-0.009,VALID,20.55,INVALID,360.0,VALID,0.0,
2019-09-02, 02:38:06,VALID,916.657,VALID,0.0,VALID,89.339,VALID,-0.003,VALID,20.507,INVALID,360.0,VALID,0.0,
2019-09-02, 02:39:06,VALID,916.653,VALID,0.0,VALID,89.577,VALID,-0.016,VALID,20.488,INVALID,360.0,VALID,0.0,
2019-09-02, 02:40:06,VALID,916.627,VALID,0.0,VALID,89.558,VALID,-0.031,VALID,20.472,INVALID,360.0,VALID,0.0,
2019-09-02, 02:41:06,VALID,916.607,VALID,0.0,VALID,89.516,VALID,-0.009,VALID,20.489,INVALID,360.0,VALID,0.0,
2019-09-02, 02:42:06,VALID,916.593,VALID,0.0,VALID,89.068,VALID,-0.021,VALID,20.581,INVALID,360.0,VALID,0.0,
2019-09-02, 02:43:06,VALID,916.568,VALID,0.0,VALID,88.395,VALID,-0.035,VALID,20.707,INVALID,360.0,VALID,0.0,
2019-09-02, 02:44:06,VALID,916.577,VALID,0.0,VALID,88.013,VALID,-0.036,VALID,20.757,INVALID,360.0,VALID,0.0,
2019-09-02, 02:45:06,VALID,916.554,VALID,0.0,VALID,88.008,VALID,-0.025,VALID,20.703,INVALID,360.0,VALID,0.0,
2019-09-02, 02:46:06,VALID,916.549,VALID,0.0,VALID,88.219,VALID,-0.014,VALID,20.625,INVALID,360.0,VALID,0.0,
2019-09-02, 02:47:06,VALID,916.524,VALID,0.0,VALID,88.68,VALID,-0.029,VALID,20.533,INVALID,360.0,VALID,0.0,
2019-09-02, 02:48:06,VALID,916.515,VALID,0.0,VALID,88.278,VALID,-0.023,VALID,20.628,INVALID,360.0,VALID,0.0,
2019-09-02, 02:49:06,VALID,916.52,VALID,0.0,VALID,87.526,VALID,-0.018,VALID,20.787,INVALID,360.0,VALID,0.0,
2019-09-02, 02:50:06,VALID,916.527,VALID,0.0,VALID,87.446,VALID,0.006,VALID,20.823,INVALID,360.0,VALID,0.0,
2019-09-02, 02:51:06,VALID,916.496,VALID,0.0,VALID,87.508,VALID,0.002,VALID,20.787,INVALID,360.0,VALID,0.0,
2019-09-02, 02:52:06,VALID,916.492,VALID,0.0,VALID,87.142,VALID,-0.0,VALID,20.807,INVALID,360.0,VALID,0.0,
2019-09-02, 02:53:06,VALID,916.494,VALID,0.0,VALID,86.583,VALID,-0.004,VALID,20.904,INVALID,360.0,VALID,0.0,
2019-09-02, 02:54:06,VALID,916.5,VALID,0.0,VALID,86.176,VALID,0.006,VALID,20.98,VALID,80.0,VALID,0.925,
2019-09-02, 02:55:06,VALID,916.501,VALID,0.0,VALID,85.83,VALID,-0.003,VALID,21.024,VALID,90.0,VALID,0.404,
2019-09-02, 02:56:06,VALID,916.505,VALID,0.0,VALID,85.779,VALID,0.02,VALID,21.013,VALID,86.0,VALID,0.785,
2019-09-02, 02:57:06,VALID,916.506,VALID,0.0,VALID,85.946,VALID,0.009,VALID,20.947,VALID,68.0,VALID,0.861,
2019-09-02, 02:58:06,VALID,916.502,VALID,0.0,VALID,86.333,VALID,0.009,VALID,20.886,VALID,86.0,VALID,0.616,
2019-09-02, 02:59:06,VALID,916.465,VALID,0.0,VALID,86.758,VALID,0.004,VALID,20.821,VALID,88.0,VALID,0.8,
2019-09-02, 03:00:06,VALID,916.458,VALID,0.0,VALID,86.657,VALID,0.019,VALID,20.788,VALID,81.0,VALID,1.014,
2019-09-02, 03:01:06,VALID,916.425,VALID,0.0,VALID,86.052,VALID,-0.008,VALID,20.855,VALID,74.0,VALID,0.898,
2019-09-02, 03:02:06,VALID,916.407,VALID,0.0,VALID,85.422,VALID,-0.007,VALID,20.948,VALID,78.0,VALID,0.891,
2019-09-02, 03:03:06,VALID,916.42,VALID,0.0,VALID,84.901,VALID,-0.012,VALID,21.028,VALID,83.0,VALID,1.295,
2019-09-02, 03:04:06,VALID,916.42,VALID,0.0,VALID,84.43,VALID,-0.009,VALID,21.086,VALID,88.0,VALID,1.38,
2019-09-02, 03:05:06,VALID,916.417,VALID,0.0,VALID,84.04,VALID,-0.028,VALID,21.141,INVALID,360.0,VALID,0.03,
2019-09-02, 03:06:06,VALID,916.414,VALID,0.0,VALID,84.01,VALID,-0.003,VALID,21.164,INVALID,360.0,VALID,0.0,
2019-09-02, 03:07:06,VALID,916.417,VALID,0.0,VALID,83.721,VALID,-0.016,VALID,21.162,INVALID,360.0,VALID,0.0,
2019-09-02, 03:08:06,VALID,916.429,VALID,0.0,VALID,83.895,VALID,-0.003,VALID,21.181,INVALID,360.0,VALID,0.02,
2019-09-02, 03:09:06,VALID,916.424,VALID,0.0,VALID,83.143,VALID,-0.005,VALID,21.222,INVALID,360.0,VALID,0.066,
2019-09-02, 03:10:06,VALID,916.425,VALID,0.0,VALID,82.816,VALID,-0.017,VALID,21.29,INVALID,360.0,VALID,0.0,
2019-09-02, 03:11:06,VALID,916.446,VALID,0.0,VALID,82.83,VALID,-0.022,VALID,21.29,INVALID,360.0,VALID,0.0,
2019-09-02, 03:12:06,VALID,916.468,VALID,0.0,VALID,82.596,VALID,-0.024,VALID,21.308,INVALID,360.0,VALID,0.0,
2019-09-02, 03:13:06,VALID,916.46,VALID,0.0,VALID,82.387,VALID,-0.018,VALID,21.325,INVALID,360.0,VALID,0.204,
2019-09-02, 03:14:06,VALID,916.46,VALID,0.0,VALID,81.973,VALID,-0.024,VALID,21.357,INVALID,360.0,VALID,0.0,
2019-09-02, 03:15:06,VALID,916.461,VALID,0.0,VALID,81.474,VALID,-0.017,VALID,21.422,INVALID,360.0,VALID,0.0,
2019-09-02, 03:16:06,VALID,916.48,VALID,0.0,VALID,81.745,VALID,-0.03,VALID,21.421,INVALID,360.0,VALID,0.0,
2019-09-02, 03:17:06,VALID,916.47,VALID,0.0,VALID,81.815,VALID,-0.02,VALID,21.369,INVALID,360.0,VALID,0.0,
2019-09-02, 03:18:06,VALID,916.458,VALID,0.0,VALID,82.071,VALID,-0.025,VALID,21.343,INVALID,360.0,VALID,0.0,
2019-09-02, 03:19:06,VALID,916.464,VALID,0.0,VALID,81.934,VALID,-0.03,VALID,21.335,INVALID,360.0,VALID,0.0,
2019-09-02, 03:20:06,VALID,916.461,VALID,0.0,VALID,82.477,VALID,-0.03,VALID,21.302,INVALID,360.0,VALID,0.0,
2019-09-02, 03:21:06,VALID,916.445,VALID,0.0,VALID,82.716,VALID,-0.038,VALID,21.222,INVALID,360.0,VALID,0.0,
2019-09-02, 03:22:06,VALID,916.432,VALID,0.0,VALID,82.465,VALID,-0.058,VALID,21.228,INVALID,360.0,VALID,0.0,
2019-09-02, 03:23:06,VALID,916.424,VALID,0.0,VALID,82.86,VALID,-0.033,VALID,21.197,INVALID,360.0,VALID,0.0,
2019-09-02, 03:24:06,VALID,916.388,VALID,0.0,VALID,82.554,VALID,-0.027,VALID,21.141,INVALID,360.0,VALID,0.0,
2019-09-02, 03:25:06,VALID,916.403,VALID,0.0,VALID,82.261,VALID,-0.019,VALID,21.156,INVALID,360.0,VALID,0.0,
2019-09-02, 03:26:06,VALID,916.387,VALID,0.0,VALID,81.828,VALID,-0.007,VALID,21.235,INVALID,360.0,VALID,0.0,
2019-09-02, 03:27:06,VALID,916.403,VALID,0.0,VALID,81.698,VALID,-0.012,VALID,21.318,INVALID,360.0,VALID,0.0,
2019-09-02, 03:28:06,VALID,916.446,VALID,0.0,VALID,82.194,VALID,-0.011,VALID,21.254,INVALID,360.0,VALID,0.0,
2019-09-02, 03:29:06,VALID,916.446,VALID,0.0,VALID,82.092,VALID,0.003,VALID,21.184,INVALID,360.0,VALID,0.0,
2019-09-02, 03:30:06,VALID,916.45,VALID,0.0,VALID,82.454,VALID,-0.016,VALID,21.197,INVALID,360.0,VALID,0.0,
2019-09-02, 03:31:06,VALID,916.452,VALID,0.0,VALID,82.276,VALID,-0.014,VALID,21.155,INVALID,360.0,VALID,0.0,
2019-09-02, 03:32:06,VALID,916.46,VALID,0.0,VALID,82.379,VALID,-0.03,VALID,21.184,INVALID,360.0,VALID,0.0,
2019-09-02, 03:33:06,VALID,916.423,VALID,0.0,VALID,82.514,VALID,-0.028,VALID,21.173,INVALID,360.0,VALID,0.0,
2019-09-02, 03:34:06,VALID,916.425,VALID,0.0,VALID,82.692,VALID,-0.026,VALID,21.147,INVALID,360.0,VALID,0.0,
2019-09-02, 03:35:06,VALID,916.406,VALID,0.0,VALID,83.301,VALID,-0.066,VALID,21.07,INVALID,360.0,VALID,0.0,
2019-09-02, 03:36:06,VALID,916.404,VALID,0.0,VALID,83.119,VALID,-0.072,VALID,21.013,INVALID,360.0,VALID,0.0,
2019-09-02, 03:37:06,VALID,916.4,VALID,0.0,VALID,83.803,VALID,-0.085,VALID,20.902,INVALID,360.0,VALID,0.0,
2019-09-02, 03:38:06,VALID,916.385,VALID,0.0,VALID,83.712,VALID,-0.065,VALID,20.863,INVALID,360.0,VALID,0.0,